TimeEDT,TemperatureF,Dew PointF,Humidity,Sea Level PressureIn,VisibilityMPH,Wind Direction,Wind SpeedMPH,Gust SpeedMPH,PrecipitationIn,Events,Conditions,WindDirDegrees,DateUTC
12:53 AM,42.1,33.1,70,30.02,10.0,West,9.2,-,N/A,,Overcast,280,2013-03-29 04:53:00
1:53 AM,41.0,34.0,76,30.01,10.0,West,9.2,-,N/A,,Overcast,280,2013-03-29 05:53:00
2:53 AM,39.9,34.0,79,30.01,10.0,WNW,6.9,-,N/A,,Overcast,290,2013-03-29 06:53:00
3:53 AM,41.0,35.1,79,30.00,10.0,WNW,8.1,-,N/A,,Overcast,290,2013-03-29 07:53:00
4:53 AM,41.0,34.0,76,30.01,10.0,NNW,9.2,-,N/A,,Clear,330,2013-03-29 08:53:00
5:53 AM,39.9,34.0,79,30.01,10.0,NW,9.2,-,N/A,,Clear,320,2013-03-29 09:53:00
6:53 AM,39.9,35.1,83,30.03,10.0,NW,10.4,-,N/A,,Clear,320,2013-03-29 10:53:00
7:53 AM,44.1,35.1,71,30.03,10.0,NW,10.4,-,N/A,,Clear,310,2013-03-29 11:53:00
8:53 AM,46.0,34.0,63,30.04,10.0,NW,13.8,-,N/A,,Clear,310,2013-03-29 12:53:00
9:53 AM,48.9,33.1,54,30.04,10.0,NW,9.2,-,N/A,,Clear,310,2013-03-29 13:53:00
10:53 AM,51.1,33.1,50,30.04,10.0,NW,9.2,16.1,N/A,,Clear,310,2013-03-29 14:53:00
11:53 AM,53.1,34.0,48,30.04,10.0,NW,9.2,-,N/A,,Clear,320,2013-03-29 15:53:00
11:57 AM,53.6,33.8,47,30.03,10.0,North,11.5,-,N/A,,Clear,350,2013-03-29 15:57:00
12:53 PM,52.0,37.0,57,30.03,10.0,SW,15.0,-,N/A,,Clear,220,2013-03-29 16:53:00
1:02 PM,51.8,37.4,58,30.03,10.0,SW,13.8,-,N/A,,Clear,230,2013-03-29 17:02:00
1:53 PM,51.1,37.0,59,30.01,10.0,WSW,11.5,-,N/A,,Clear,240,2013-03-29 17:53:00
2:53 PM,50.0,37.0,61,30.01,10.0,SW,10.4,-,N/A,,Clear,230,2013-03-29 18:53:00
3:53 PM,52.0,35.1,53,30.00,10.0,West,16.1,21.9,N/A,,Clear,280,2013-03-29 19:53:00
4:53 PM,50.0,33.1,52,30.01,10.0,West,16.1,23.0,N/A,,Mostly Cloudy,270,2013-03-29 20:53:00
5:53 PM,46.9,34.0,61,30.01,10.0,West,13.8,-,N/A,,Clear,270,2013-03-29 21:53:00
6:53 PM,44.1,35.1,71,30.01,10.0,West,12.7,-,N/A,,Partly Cloudy,260,2013-03-29 22:53:00
7:53 PM,41.0,36.0,82,30.02,10.0,WSW,8.1,-,N/A,,Clear,240,2013-03-29 23:53:00
8:53 PM,41.0,36.0,82,30.03,10.0,WSW,8.1,-,N/A,,Clear,240,2013-03-30 00:53:00
9:53 PM,43.0,36.0,76,30.03,10.0,WSW,12.7,-,N/A,,Mostly Cloudy,250,2013-03-30 01:53:00
10:53 PM,43.0,37.0,80,30.03,10.0,West,9.2,-,N/A,,Overcast,260,2013-03-30 02:53:00
11:53 PM,41.0,36.0,82,30.02,10.0,West,8.1,-,N/A,,Partly Cloudy,280,2013-03-30 03:53:00